星链-4768 (STARLINK-4768 )

导读 | 豆包AI

STARLINK-4768是美国太空探索技术公司(SpaceX)星链(Starlink)星座中的一颗卫星,于2022年9月11日发射升空,属于星链组网卫星,承担低轨卫星互联网通信任务,服务全球高速互联网接入需求,运行在近地轨道,推进星链系统的全球覆盖与服务能力建设。

Basic Information
目录编号:
53806
目录名称:
STARLINK-4768
国际标识:
2022-111AK
轨道中心:
EARTH
卫星名称:
星链-4768
卫星全名:
星链-4768 (STARLINK-4768 )
卫星状态:
在轨 (已飞行1327 天)
发射日期:
2022-09-11 UTC
国别 :
美国 (US)
星等 :
--
Orbit Information
数据来源 国际轨道数据 AOE轨道数据
星历时间 2026-04-30T10:57:42+0800
15小时前
查看轨道信息
2026-04-28T17:00:00+0800
2天前
查看轨道信息
半长轴 6917.877km 6917.88km
偏心率 0.0001442 0.0001449
轨道倾角 53.219° 53.218°
近地点辐角 90.891° 99.024°
升交点赤经 18.068° 25.918°
平近点角 269.224° 118.931°
近地点 538.742km 538.74km
远地点 540.738km 540.746km
周期 95.437分钟 95.438分钟
每日圈数 15.088412 15.088403
Detailed Information
固有亮度:
5
最大亮度:
2.5
卫星平台:
Starlink v1.5
覆盖范围:
全球
运营商:
太空探索技术公司
运营商所在国:
美国
制造商(研发单位):
太空探索技术公司
制造商所在国:
美国
使用方式:
暂无
Satellite Introduction
星链(Starlink)计划是由太空探索技术公司(SpaceX)提出的一个巨型低轨卫星互联网星座项目,计划在2019年至2024年间在太空搭建由约1.2万颗卫星组成的“星链”网络,其中1584颗将部署在地球上空550千米处的近地轨道,并从2020年开始工作。该卫星仍在工作。
2D Orbit Map
3D Orbit Map
Orbit Altitude Analysis Chart
Orbit Inclination Analysis Chart
Orbit Comprehensive Analysis Chart
View Comprehensive Chart